Vertical_Velocity
-1 0 -1 -0 -1 -1 -0 -1 1 2 2 2 -0 -0 1 0 2 -0 -1 2 1 -2 1 1 -1 -1 -0 -0 -1 -2 -2 -1 -0 -1 -0 -2 -2 -1 -1 0 -1 1 1
-0 -1 -0 -1 0 -1 -1 -1 -1 -1 0 2 1 0 1 -1 1 -0 -0 -0 -1 1 0 -1 -4 -1 -1 1 -1 -0 -2 -0 -1 -1 -0 -1 -1 0 1 0 1 -0 -1
-0 -1 -2 -1 -1 -1 -0 -1 1 1 1 2 -0 -0 2 -1 2 -0 -1 -0 0 -0 -2 -0 -1 -0 -0 1 -3 -2 -2 -2 -1 -0 -1 0 -0 1 -0 -0 0 0 0
-0 -1 -2 1 1 -1 0 0 1 0 0 1 1 1 1 -1 1 0 -0 0 1 1 1 -1 -1 1 -1 -3 -1 -1 -1 -1 -2 -1 0 -1 1 0 -0 1 -0 0 -2
-1 -1 0 0 1 0 1 -1 0 0 0 -0 0 2 1 1 -0 2 -0 1 1 -0 -0 -1 -1 -2 -1 1 -1 -2 -0 -1 -1 1 1 0 -0 1 0 -1 -1 -1 -2
1 -1 1 -0 -0 1 1 1 -0 -0 -0 -1 2 2 2 1 2 1 1 2 2 1 1 1 -1 -1 -1 -1 -3 -1 -2 -2 -0 -0 -0 -0 -1 -1 -1 -1 -1 -1 -2
-0 -0 -2 -0 -1 2 0 1 0 1 0 -1 0 1 2 2 2 3 2 0 0 -1 -0 0 -1 -1 0 -0 -0 0 -0 -2 -1 -2 -3 -2 -2 -2 -0 -1 -1 -0 -0
-0 -0 -1 -2 -1 1 1 -0 1 0 -1 1 1 0 2 2 2 1 -1 -1 -0 -0 -1 -2 -1 -0 -0 -1 -0 -0 0 0 -0 -1 -0 0 0 -0 -1 -1 -1 -1 -1
-1 -1 0 -0 -1 1 -0 -0 1 0 -1 -1 -1 -0 -0 -0 1 -0 0 -1 0 -0 -1 -1 -0 -1 -2 -1 0 -2 -1 1 -1 -3 -2 -2 -2 -1 1 1 -1 -0 0
-1 0 -1 -1 0 -0 -0 -1 -0 0 -1 -1 -2 1 1 2 1 -0 1 -1 1 1 -0 -1 -0 -1 -3 -3 -2 -0 -1 -1 -3 -1 -0 -1 -2 -2 -2 -1 0 -1 -0
-1 1 0 -2 -0 -1 -0 0 -1 1 -1 -1 -0 -2 0 -0 -0 1 -2 -1 -0 -1 -1 -2 -2 -2 -0 1 1 2 0 0 -2 -1 -1 -0 -0 -0 -0 -1 -1 -1 -2
2 1 -0 -1 -0 -3 1 -0 -1 -0 1 -2 -0 -0 -0 -0 -1 -2 -1 -1 0 -0 0 1 2 2 1 1 0 -0 -0 1 -0 -1 -1 -0 -0 -1 -1 -1 -2 -1 -2
-1 -2 1 2 -1 -4 -2 -1 0 0 0 0 -1 -1 -0 -1 -1 -1 -1 1 1 -0 -0 -1 0 -0 0 2 1 1 2 2 2 2 1 0 -0 1 1 -0 -1 -1 0
1 1 1 3 -2 -2 -1 1 0 -0 -1 -1 -1 -1 -2 -1 -0 -1 0 -0 -1 -0 -0 0 -1 2 -0 -0 -0 1 1 1 2 3 1 1 1 2 2 1 1 0 1
-1 -1 -0 0 -2 -1 0 -1 0 -1 -1 -2 -0 -1 -1 -1 0 0 2 0 -1 0 1 -0 0 -1 0 1 -0 1 -1 1 1 3 3 0 2 1 1 -1 -0 2 2
-0 -1 -1 1 0 -0 -1 -1 -1 -1 -1 -1 -0 1 -1 1 -2 -1 -1 -2 -1 1 -0 1 -2 -1 -0 -0 1 -1 1 0 2 1 1 1 1 3 3 0 1 0 1
0 0 -0 0 -0 -1 -0 1 1 -1 -0 -1 0 -0 -0 -1 -2 2 -0 -2 -2 -1 1 1 -2 -0 1 -1 1 0 0 1 4 2 1 3 -1 -1 1 2 0 -1 0
-2 -1 -2 1 1 1 1 0 1 0 -1 -1 -2 -1 -1 1 2 1 1 -1 -2 -0 0 0 0 1 1 -1 -0 -1 -0 -1 -1 -0 2 -0 1 2 -1 -1 -0 -1 1
-2 -1 -1 -0 -0 0 1 0 0 -0 -0 -1 -0 0 -1 -0 -1 1 1 -0 1 0 -1 -2 0 -2 1 -1 -2 -0 0 3 -0 -0 0 -2 -1 0 0 1 -3 -2 0
2 -3 -1 0 -0 0 0 0 -0 -3 -3 -2 -1 -1 -1 -1 1 2 2 2 0 2 1 -0 -2 -4 2 -2 -2 7 1 3 2 -2 -1 -3 -2 -0 -4 -1 -1 0 -4
2 3 -1 -1 -1 1 1 0 -0 -0 0 -1 -1 -0 -0 1 -1 -0 1 1 0 3 1 -2 1 1 1 -5 -6 1 4 6 3 4 3 5 3 0 1 1 -2 -1 5
3 -0 2 1 1 0 1 1 2 1 1 -1 -1 -1 -1 -0 0 -0 -1 -1 -1 1 -1 -2 -5 0 1 -2 -7 -9 2 17 7 10 6 1 3 -3 1 1 -1 2 -3
-1 -0 -0 0 1 3 2 1 1 1 0 -1 -0 1 0 0 -1 -0 0 0 -1 -0 1 -0 -1 -2 1 8 -1 -13 -14 -1 -10 9 8 6 5 1 4 -3 -0 -2 1
3 -0 -0 2 2 2 1 0 0 0 0 -0 -1 -1 -0 -1 -1 -0 -0 -0 -0 -0 -0 2 1 -2 -5 -0 6 -1 -4 -14 -14 -15 6 5 9 16 4 3 2 -1 -0
0 -0 1 0 1 1 1 1 0 1 1 1 0 0 2 2 2 0 1 2 2 1 -1 -1 2 -2 -2 -2 1 6 5 1 2 -19 -26 2 -2 1 11 14 5 1 4
2 1 -2 -1 0 1 1 2 1 0 1 2 2 1 0 0 0 -0 -2 -2 -3 -2 -1 1 1 -1 -1 -2 -4 1 -2 -3 11 3 -13 -2 -23 19 -1 -0 9 18 9
Height
5862 5862 5862 5863 5862 5861 5861 5861 5862 5862 5862 5862 5863 5862 5863 5863 5863 5863 5862 5861 5861 5861 5859 5858 5857 5856 5856 5855 5852 5851 5848 5847 5845 5844 5844 5842 5840 5839 5837 5836 5835 5833 5830
5860 5860 5861 5860 5860 5860 5860 5860 5860 5860 5860 5860 5860 5860 5861 5861 5861 5861 5860 5860 5859 5858 5858 5856 5855 5854 5853 5852 5850 5848 5845 5844 5842 5840 5838 5836 5835 5834 5833 5833 5831 5829 5826
5858 5858 5859 5859 5859 5859 5859 5858 5858 5858 5858 5858 5858 5858 5859 5858 5858 5858 5858 5858 5857 5857 5855 5854 5853 5852 5851 5849 5847 5845 5842 5841 5838 5835 5833 5831 5830 5830 5829 5828 5826 5824 5822
5856 5856 5857 5857 5857 5857 5857 5856 5856 5856 5856 5856 5856 5856 5856 5856 5855 5856 5856 5855 5855 5854 5853 5852 5850 5849 5848 5847 5844 5841 5839 5837 5834 5831 5829 5828 5826 5825 5824 5823 5822 5821 5819
5854 5854 5855 5855 5855 5855 5855 5855 5855 5854 5854 5854 5854 5854 5854 5853 5852 5854 5854 5853 5852 5852 5851 5849 5848 5847 5845 5843 5841 5839 5836 5834 5832 5829 5827 5825 5824 5823 5822 5820 5819 5817 5815
5853 5852 5852 5852 5852 5853 5853 5853 5852 5852 5852 5852 5851 5851 5852 5851 5851 5851 5852 5851 5850 5849 5847 5846 5845 5843 5842 5840 5839 5836 5833 5831 5829 5826 5824 5823 5822 5821 5819 5817 5816 5815 5813
5851 5851 5850 5850 5850 5851 5851 5850 5850 5850 5850 5850 5849 5849 5849 5849 5848 5848 5848 5847 5846 5845 5843 5843 5841 5841 5839 5838 5836 5834 5831 5829 5826 5824 5823 5821 5820 5818 5817 5815 5814 5812 5809
5849 5849 5849 5848 5848 5848 5848 5848 5848 5848 5848 5847 5846 5845 5846 5845 5844 5844 5844 5843 5842 5841 5840 5839 5838 5837 5836 5835 5833 5830 5828 5826 5823 5822 5820 5819 5817 5815 5813 5811 5810 5808 5806
5847 5847 5846 5846 5845 5845 5845 5845 5845 5845 5844 5844 5843 5842 5842 5841 5841 5841 5841 5840 5839 5838 5836 5835 5834 5833 5832 5831 5829 5827 5824 5822 5820 5819 5817 5816 5813 5811 5809 5807 5805 5803 5801
5845 5844 5844 5843 5842 5841 5842 5842 5842 5841 5841 5841 5840 5839 5838 5839 5838 5837 5837 5836 5835 5834 5833 5831 5830 5829 5827 5825 5824 5822 5820 5818 5816 5814 5813 5811 5808 5806 5803 5801 5799 5797 5794
5842 5842 5841 5840 5839 5838 5838 5838 5838 5838 5838 5837 5836 5836 5834 5835 5834 5833 5832 5831 5831 5830 5828 5827 5826 5824 5822 5820 5818 5817 5815 5813 5810 5808 5806 5804 5802 5799 5796 5794 5792 5789 5787
5840 5839 5839 5837 5836 5835 5835 5834 5834 5834 5834 5833 5833 5832 5831 5831 5830 5829 5828 5827 5826 5824 5823 5821 5820 5818 5816 5814 5812 5810 5808 5805 5803 5800 5798 5796 5794 5791 5789 5786 5784 5781 5779
5836 5836 5835 5834 5832 5832 5831 5830 5829 5829 5829 5829 5829 5828 5827 5826 5825 5824 5823 5821 5819 5818 5816 5815 5812 5810 5808 5806 5804 5802 5799 5797 5795 5792 5790 5787 5785 5782 5780 5778 5775 5772 5770
5834 5833 5832 5830 5829 5827 5826 5826 5825 5825 5824 5824 5824 5823 5822 5821 5820 5818 5816 5814 5812 5811 5809 5807 5805 5802 5800 5798 5796 5793 5791 5788 5786 5784 5781 5778 5776 5773 5771 5768 5766 5763 5760
5830 5830 5828 5827 5826 5824 5823 5821 5821 5821 5820 5819 5819 5818 5817 5815 5813 5811 5809 5807 5805 5802 5800 5798 5796 5793 5790 5788 5785 5783 5780 5777 5775 5774 5772 5769 5767 5764 5761 5758 5755 5753 5750
5825 5826 5824 5823 5821 5820 5818 5817 5816 5816 5816 5815 5813 5812 5811 5808 5806 5804 5801 5799 5796 5793 5791 5789 5786 5783 5781 5778 5775 5772 5770 5767 5765 5763 5761 5759 5755 5753 5750 5747 5745 5742 5739
5821 5821 5820 5819 5817 5815 5814 5812 5812 5812 5811 5810 5808 5806 5804 5801 5798 5795 5793 5790 5786 5784 5782 5779 5776 5773 5771 5768 5765 5762 5759 5757 5755 5752 5749 5747 5744 5741 5738 5736 5733 5730 5728
5816 5816 5816 5815 5812 5810 5809 5808 5808 5807 5806 5804 5802 5799 5796 5793 5790 5788 5786 5782 5779 5776 5773 5770 5768 5765 5762 5759 5756 5753 5751 5747 5745 5741 5739 5735 5732 5729 5726 5722 5720 5718 5716
5810 5810 5810 5809 5808 5806 5805 5804 5802 5801 5799 5797 5794 5791 5788 5786 5784 5782 5779 5775 5772 5770 5766 5762 5759 5755 5754 5751 5747 5744 5741 5737 5733 5729 5726 5722 5719 5716 5713 5710 5707 5704 5702
5803 5804 5804 5803 5803 5802 5801 5799 5796 5794 5792 5789 5787 5785 5782 5780 5777 5775 5772 5769 5764 5762 5758 5754 5750 5746 5743 5739 5735 5733 5728 5725 5721 5717 5713 5708 5705 5702 5698 5695 5692 5690 5685
5798 5797 5798 5797 5797 5797 5795 5793 5791 5788 5785 5783 5780 5777 5775 5772 5769 5767 5764 5760 5756 5753 5749 5744 5740 5735 5731 5725 5721 5718 5715 5712 5709 5705 5700 5696 5691 5687 5683 5680 5676 5672 5670
5793 5793 5792 5792 5792 5791 5789 5786 5783 5781 5778 5776 5773 5771 5767 5764 5761 5758 5754 5750 5746 5742 5737 5732 5727 5722 5718 5712 5705 5700 5698 5699 5695 5690 5686 5681 5676 5671 5667 5663 5660 5657 5652
5788 5789 5788 5788 5787 5785 5782 5779 5776 5773 5770 5768 5765 5762 5759 5756 5752 5748 5744 5740 5736 5731 5727 5722 5715 5709 5704 5699 5692 5684 5678 5677 5673 5674 5670 5667 5662 5658 5653 5648 5643 5639 5635
5783 5783 5782 5781 5780 5778 5775 5772 5769 5766 5763 5760 5757 5754 5750 5746 5742 5738 5734 5729 5724 5719 5714 5709 5703 5697 5691 5686 5681 5673 5665 5658 5651 5651 5652 5645 5641 5639 5635 5631 5627 5624 5618
5779 5777 5775 5774 5772 5769 5767 5765 5762 5759 5755 5752 5749 5745 5741 5738 5734 5729 5724 5719 5714 5709 5703 5697 5691 5684 5677 5671 5664 5657 5650 5642 5634 5625 5628 5627 5622 5617 5614 5610 5606 5603 5600
5772 5769 5768 5766 5764 5762 5760 5757 5754 5750 5747 5744 5740 5736 5732 5727 5722 5717 5712 5706 5700 5694 5688 5681 5673 5666 5659 5652 5645 5637 5629 5621 5615 5604 5597 5599 5596 5599 5592 5589 5583 5582 5579